NM5I Weather Reports


time (UTC)temp
F
wind
direction
speed
knots
gust
knots
rain 1hr
in
rain 24hr
in
rain mn
in
humidity
%
barometer
mb
20211017151405 64 69 0.9 4.3 0.00 0.00 0.00 50 1027.0
20211017150411 63 101 0.9 1.7 0.00 0.00 0.00 55 1027.0
20211017145410 61 74 0.9 2.6 0.00 0.00 0.00 64 1026.9
20211017144413 59 286 0.0 1.7 0.00 0.00 0.00 68 1026.8
20211017143324 56 286 0.0 0.0 0.00 0.00 0.00 82 1026.7
20211017142334 55 286 0.0 0.0 0.00 0.00 0.00 86 1026.6
20211017141336 53 286 0.0 0.0 0.00 0.00 0.00 89 1026.6
20211017140334 52 286 0.0 0.9 0.00 0.00 0.00 89 1026.6
20211017135354 50 286 0.0 0.9 0.00 0.00 0.00 90 1026.5
20211017134344 48 286 0.0 0.0 0.00 0.00 0.00 93 1026.5
20211017133357 47 286 0.0 0.0 0.00 0.00 0.00 94 1026.3
20211017132409 46 286 0.0 0.0 0.00 0.00 0.00 96 1026.3
20211017131325 45 286 0.0 0.0 0.00 0.00 0.00 95 1026.4
20211017130345 45 286 0.0 0.0 0.00 0.00 0.00 95 1026.2
20211017125349 44 286 0.0 0.0 0.00 0.00 0.00 95 1026.1
20211017123333 44 286 0.0 0.0 0.00 0.00 0.00 95 1026.1
20211017122353 44 286 0.0 0.0 0.00 0.00 0.00 95 1026.0
20211017121358 44 286 0.0 0.0 0.00 0.00 0.00 94 1026.0
20211017120326 44 286 0.0 0.0 0.00 0.00 0.00 94 1025.8
20211017115331 44 286 0.0 0.0 0.00 0.00 0.00 94 1025.8
20211017114344 44 286 0.0 0.0 0.00 0.00 0.00 94 1025.7
20211017113355 44 286 0.0 0.0 0.00 0.00 0.00 93 1025.7
20211017112356 45 286 0.0 0.0 0.00 0.00 0.00 93 1025.6
20211017111412 45 286 0.0 0.0 0.00 0.00 0.00 93 1025.5
20211017110324 45 286 0.0 0.0 0.00 0.00 0.00 93 1025.5
20211017105345 45 286 0.0 0.0 0.00 0.00 0.00 93 1025.4
20211017104354 45 286 0.0 0.0 0.00 0.00 0.00 93 1025.5
20211017103406 45 286 0.0 0.0 0.00 0.00 0.00 93 1025.6
20211017102422 45 286 0.0 0.0 0.00 0.00 0.00 92 1025.5
20211017101345 45 286 0.0 0.9 0.00 0.00 0.00 92 1025.7
20211017100401 45 286 0.0 0.0 0.00 0.00 0.00 92 1025.8
20211017095403 46 286 0.0 0.0 0.00 0.00 0.00 92 1025.8
20211017094416 46 286 0.0 0.9 0.00 0.00 0.00 92 1025.6
20211017093409 46 286 0.0 0.0 0.00 0.00 0.00 92 1025.6
20211017092409 46 286 0.0 0.0 0.00 0.00 0.00 91 1025.7
20211017091416 46 286 0.0 0.0 0.00 0.00 0.00 91 1025.5
20211017090338 46 286 0.0 0.9 0.00 0.00 0.00 91 1025.5
20211017085358 46 286 0.0 0.0 0.00 0.00 0.00 91 1025.5
20211017084344 46 286 0.0 0.0 0.00 0.00 0.00 90 1025.7
20211017083405 47 286 0.0 0.0 0.00 0.00 0.00 90 1025.6
20211017082404 47 286 0.0 0.0 0.00 0.00 0.00 90 1025.5
20211017081340 47 286 0.0 0.0 0.00 0.00 0.00 89 1025.5
20211017080349 47 286 0.0 0.0 0.00 0.00 0.00 90 1025.4
20211017075403 47 286 0.0 0.9 0.00 0.00 0.00 89 1025.4
20211017074324 47 286 0.0 0.9 0.00 0.00 0.00 89 1025.5
20211017073334 47 286 0.0 0.0 0.00 0.00 0.00 90 1025.5
20211017072343 47 286 0.0 0.0 0.00 0.00 0.00 88 1025.3
20211017071406 48 286 0.0 0.0 0.00 0.00 0.00 88 1025.2
20211017070341 48 286 0.0 0.9 0.00 0.00 0.00 87 1025.1
20211017065344 48 286 0.0 0.0 0.00 0.00 0.00 88 1025.1
20211017064331 48 286 0.0 0.9 0.00 0.00 0.00 88 1025.1
20211017063338 49 286 0.0 0.0 0.00 0.00 0.00 87 1025.2
20211017062345 49 286 0.0 0.0 0.00 0.00 0.00 86 1025.2
20211017061333 49 286 0.0 0.0 0.00 0.00 0.00 86 1025.1
20211017060339 49 286 0.0 0.0 0.00 0.00 0.00 86 1025.2
20211017055343 49 286 0.0 0.0 0.00 0.00 0.00 85 1025.1
20211017054333 49 286 0.0 0.0 0.00 0.00 0.00 85 1025.1
20211017053340 50 286 0.0 0.0 0.00 0.00 0.00 85 1025.1
20211017052326 50 286 0.0 0.9 0.00 0.00 0.00 85 1025.2
20211017051334 50 286 0.0 0.0 0.00 0.00 0.00 85 1025.2
20211017050337 50 286 0.0 0.0 0.00 0.00 0.00 84 1025.4
20211017045346 50 286 0.0 0.0 0.00 0.00 0.00 85 1025.3
20211017044405 50 286 0.0 0.9 0.00 0.00 0.00 84 1025.2
20211017043409 51 286 0.0 0.0 0.00 0.00 0.00 84 1025.3
20211017042346 51 286 0.0 0.0 0.00 0.00 0.00 84 1025.3
20211017041422 51 286 0.0 0.0 0.00 0.00 0.00 82 1025.2
20211017040339 51 286 0.0 0.0 0.00 0.00 0.00 83 1025.2
20211017035339 52 286 0.0 0.0 0.00 0.00 0.00 82 1025.2
20211017034344 52 286 0.0 0.0 0.00 0.00 0.00 81 1025.3
20211017033407 52 286 0.0 0.9 0.00 0.00 0.00 81 1025.2
20211017032412 52 286 0.0 0.0 0.00 0.00 0.00 80 1025.4
20211017031324 53 286 0.0 0.0 0.00 0.00 0.00 79 1025.5
20211017030327 53 286 0.0 0.0 0.00 0.00 0.00 77 1025.4
20211017025328 53 286 0.0 0.0 0.00 0.00 0.00 77 1025.3
20211017024346 54 286 0.0 0.0 0.00 0.00 0.00 76 1025.3
20211017023353 54 286 0.0 0.0 0.00 0.00 0.00 75 1025.2
20211017022334 54 286 0.0 0.0 0.00 0.00 0.00 75 1025.1
20211017021323 55 286 0.0 0.0 0.00 0.00 0.00 73 1025.0
20211017020331 55 286 0.0 0.0 0.00 0.00 0.00 73 1025.0
20211017015341 55 286 0.0 0.0 0.00 0.00 0.00 71 1024.9
20211017014329 56 286 0.0 0.0 0.00 0.00 0.00 70 1024.8
20211017013338 57 286 0.0 0.0 0.00 0.00 0.00 68 1024.9
20211017012326 57 286 0.0 0.0 0.00 0.00 0.00 65 1024.7
20211017011335 58 286 0.0 0.0 0.00 0.00 0.00 64 1024.6
20211017010324 59 286 0.0 0.0 0.00 0.00 0.00 63 1024.6
20211017005333 60 286 0.0 0.0 0.00 0.00 0.00 60 1024.6
20211017004342 61 286 0.0 0.0 0.00 0.00 0.00 57 1024.5
20211017003331 62 286 0.0 0.0 0.00 0.00 0.00 53 1024.4
20211017002340 63 286 0.0 0.0 0.00 0.00 0.00 50 1024.3
20211017001348 64 286 0.0 0.0 0.00 0.00 0.00 46 1024.2
20211017000339 66 286 0.0 0.0 0.00 0.00 0.00 46 1024.1
20211016235346 67 286 0.0 0.9 0.00 0.00 0.00 42 1024.0
20211016234326 68 286 0.0 3.5 0.00 0.00 0.00 40 1024.1
20211016233345 69 88 0.9 3.5 0.00 0.00 0.00 37 1024.0
20211016232324 69 41 0.9 6.1 0.00 0.00 0.00 33 1023.9
20211016231333 70 340 1.7 5.2 0.00 0.00 0.00 32 1024.0
20211016230337 71 346 1.7 7.0 0.00 0.00 0.00 32 1023.9
20211016225325 71 344 1.7 4.3 0.00 0.00 0.00 30 1023.9
20211016224331 71 100 2.6 7.8 0.00 0.00 0.00 29 1023.9
20211016223340 72 39 2.6 7.8 0.00 0.00 0.00 31 1024.1
20211016222328 72 27 2.6 7.8 0.00 0.00 0.00 30 1024.0
20211016221337 73 26 2.6 7.8 0.00 0.00 0.00 31 1024.0
20211016220325 73 300 1.7 6.1 0.00 0.00 0.00 30 1024.1
20211016215334 73 24 3.5 7.8 0.00 0.00 0.00 29 1024.2
20211016214342 73 11 1.7 5.2 0.00 0.00 0.00 29 1024.3
20211016213331 73 323 2.6 7.0 0.00 0.00 0.00 30 1024.2
20211016212339 73 115 1.7 9.6 0.00 0.00 0.00 30 1024.2
20211016211328 73 26 4.3 9.6 0.00 0.00 0.00 29 1024.3
20211016210337 74 330 1.7 6.1 0.00 0.00 0.00 30 1024.4
20211016205326 73 5 1.7 7.8 0.00 0.00 0.00 33 1024.3
20211016204334 73 309 2.6 6.1 0.00 0.00 0.00 31 1024.5
20211016203343 73 126 0.9 3.5 0.00 0.00 0.00 31 1024.6
20211016202332 73 328 1.7 8.7 0.00 0.00 0.00 32 1024.7
20211016201340 73 70 2.6 7.8 0.00 0.00 0.00 31 1024.8
20211016200329 72 19 2.6 8.7 0.00 0.00 0.00 29 1024.8
20211016195338 73 40 1.7 8.7 0.00 0.00 0.00 27 1024.8
20211016194347 73 25 3.5 10.4 0.00 0.00 0.00 30 1024.8
20211016193327 72 5 3.5 7.0 0.00 0.00 0.00 30 1025.0
20211016192341 72 344 2.6 8.7 0.00 0.00 0.00 29 1025.2
20211016191349 72 20 1.7 7.8 0.00 0.00 0.00 30 1025.3
20211016190328 72 326 2.6 7.8 0.00 0.00 0.00 32 1025.5
20211016185337 72 22 2.6 5.2 0.00 0.00 0.00 34 1025.6
20211016184325 72 340 2.6 7.0 0.00 0.00 0.00 32 1025.8
20211016183334 72 11 1.7 9.6 0.00 0.00 0.00 34 1025.9
20211016182342 72 360 3.5 9.6 0.00 0.00 0.00 32 1026.0
20211016181331 71 69 3.5 8.7 0.00 0.00 0.00 32 1026.2
20211016180340 71 355 3.5 7.8 0.00 0.00 0.00 34 1026.5
20211016175329 71 30 2.6 7.8 0.00 0.00 0.00 34 1026.6
20211016174338 71 166 3.5 11.3 0.00 0.00 0.00 34 1026.7
20211016173327 70 220 0.9 5.2 0.00 0.00 0.00 35 1026.8
20211016172336 70 139 2.6 7.8 0.00 0.00 0.00 35 1026.9
20211016171325 70 67 1.7 7.0 0.00 0.00 0.00 37 1027.2
20211016170331 69 54 3.5 10.4 0.00 0.00 0.00 39 1027.2
20211016165339 69 317 5.2 10.4 0.00 0.00 0.00 37 1027.3
20211016164328 68 87 3.5 8.7 0.00 0.00 0.00 38 1027.3
20211016163336 68 31 2.6 8.7 0.00 0.00 0.00 41 1027.4
20211016162325 68 5 2.6 9.6 0.00 0.00 0.00 40 1027.3
20211016161331 67 309 0.9 7.0 0.00 0.00 0.00 48 1027.3
20211016160340 67 88 1.7 7.8 0.00 0.00 0.00 48 1027.3
20211016155329 66 91 1.7 7.0 0.00 0.00 0.00 52 1027.4
20211016154334 66 18 2.6 8.7 0.00 0.00 0.00 52 1027.3
20211016153343 65 44 1.7 8.7 0.00 0.00 0.00 53 1027.3
20211016152351 65 309 0.9 3.5 0.00 0.00 0.00 59 1027.2